Location: Johnson City
(36.3130°N, 82.3540°W)
Time: 20:08:23
(UTC-04:00)

Envisat - Pass Details

Date: 28 February 2019
Orbit: 764 x 766 km, 98.2° (Epoch: 20 March)

Event Time Altitude Azimuth Distance (km) Brightness Sun altitude
Rises 18:52:10 0° 156° (SSE) 3,217 6.0 -6.7°
Reaches altitude 10° 18:54:29 10° 153° (SSE) 2,294 5.2 -7.1°
Maximum altitude 18:59:27 59° 74° (ENE) 879 3.0 -8.1°
Drops below altitude 10° 19:04:27 10° 356° (N) 2,308 5.5 -9.1°
Sets 19:06:47 0° 353° (N) 3,237 6.3 -9.6°
